Oak Harbor, WA

3:56 PM PST on February 07, 2016 (GMT -0800)
Whidbey Island Naval Air Station

Weather History for KNUW - June, 2013

Change the Weather History Date:

Saturday, June 22, 2013

  Actual Average Record
Temperature  
Mean Temperature 55 °F -  
Max Temperature 66 °F 62 °F 69 °F (2015)
Min Temperature 46 °F 48 °F 46 °F (2013)
Degree Days  
Heating Degree Days 10    
Growing Degree Days 5 (Base 50)    
Moisture  
Dew Point 51 °F    
Average Humidity 81    
Maximum Humidity 97    
Minimum Humidity 65    
Precipitation  
Precipitation 0.00 in - - ()
Sea Level Pressure  
Sea Level Pressure 30.04 in    
Wind  
Wind Speed 3 mph (West)    
Max Wind Speed 8 mph    
Max Gust Speed -    
Visibility 10 miles    
Events      
Averages and records for this station are not official NWS values.
T = Trace of Precipitation, MM = Missing Value Source: NWS Daily Summary

Daily Weather History Graph

Daily Weather History Graph

Search for Another Location

Airport or City:

Trip Planner

Search our weather history database for the weather conditions in past years. The results will help you decide how hot, cold, wet, or windy it might be!

Date:

Astronomy

Jun. 22, 2013 Rise Set
Actual Time 5:09 AM PDT 9:15 PM PDT
Civil Twilight 4:27 AM PDT 9:57 PM PDT
Nautical Twilight 3:29 AM PDT 10:56 PM PDT
Astronomical Twilight 1:37 AM PDT 12:47 AM PDT
Moon 8:30 PM PDT (6/22) 4:33 AM PDT (6/22)
Length of Visible Light 17h 29m
Length of Day
16h 05m
Waxing Gibbous, 99% of the Moon is Illuminated
Jun 22
Waxing Gibbous
Jun 23
Full
Jun 29
Last Quarter
Jul 8
New
Jul 15
First Quarter

Hourly Weather History & Observations

Time (PDT) Temp. Dew Point Humidity Pressure Visibility Wind Dir Wind Speed Gust Speed Precip Events Conditions
12:56 AM 50.0 °F 48.0 °F 93% 30.16 in 10.0 mi Calm Calm - N/A   Scattered Clouds
1:56 AM 50.0 °F 48.0 °F 93% 30.15 in 10.0 mi East 3.5 mph - N/A   Mostly Cloudy
2:56 AM 50.0 °F 48.0 °F 93% 30.13 in 10.0 mi SE 4.6 mph - N/A   Mostly Cloudy
3:56 AM 46.9 °F 46.0 °F 97% 30.13 in 10.0 mi SE 3.5 mph - N/A   Mostly Cloudy
4:56 AM 48.0 °F 46.9 °F 96% 30.12 in 10.0 mi SSE 3.5 mph - N/A   Scattered Clouds
5:56 AM 48.9 °F 48.0 °F 97% 30.12 in 10.0 mi ESE 3.5 mph - N/A   Scattered Clouds
6:56 AM 51.1 °F 48.9 °F 92% 30.12 in 10.0 mi Calm Calm - N/A   Scattered Clouds
7:41 AM 55.4 °F 53.6 °F 94% 30.10 in 10.0 mi WSW 4.6 mph - N/A   Scattered Clouds
7:56 AM 54.0 °F 52.0 °F 93% 30.11 in 10.0 mi Calm Calm - N/A   Scattered Clouds
8:56 AM 57.0 °F 52.0 °F 83% 30.10 in 10.0 mi West 3.5 mph - N/A   Scattered Clouds
9:56 AM 60.1 °F 51.1 °F 72% 30.08 in 10.0 mi WNW 3.5 mph - N/A   Scattered Clouds
10:56 AM 60.1 °F 52.0 °F 75% 30.07 in 10.0 mi NNW 6.9 mph - N/A   Scattered Clouds
11:56 AM 64.9 °F 53.1 °F 65% 30.06 in 10.0 mi NW 6.9 mph - N/A   Scattered Clouds
12:56 PM 64.9 °F 53.1 °F 65% 30.04 in 10.0 mi WNW 8.1 mph - N/A   Scattered Clouds
1:56 PM 63.0 °F 53.1 °F 70% 30.03 in 10.0 mi West 5.8 mph - N/A   Scattered Clouds
2:56 PM 64.0 °F 53.1 °F 67% 30.01 in 10.0 mi NW 4.6 mph - N/A   Scattered Clouds
3:56 PM 64.9 °F 53.1 °F 65% 29.99 in 10.0 mi NNW 6.9 mph - N/A   Scattered Clouds
4:56 PM 64.0 °F 53.1 °F 67% 29.96 in 10.0 mi WNW 5.8 mph - N/A   Scattered Clouds
5:56 PM 62.1 °F 52.0 °F 70% 29.94 in 10.0 mi WNW 4.6 mph - N/A   Scattered Clouds
6:56 PM 62.1 °F 52.0 °F 70% 29.93 in 10.0 mi West 5.8 mph - N/A   Scattered Clouds
7:56 PM 59.0 °F 51.1 °F 75% 29.92 in 10.0 mi WSW 6.9 mph - N/A   Scattered Clouds
8:56 PM 57.0 °F 50.0 °F 77% 29.92 in 10.0 mi Calm Calm - N/A   Scattered Clouds
9:56 PM 54.0 °F 50.0 °F 86% 29.92 in 10.0 mi Calm Calm - N/A   Scattered Clouds
10:56 PM 54.0 °F 48.9 °F 83% 29.91 in 10.0 mi Calm Calm - N/A   Scattered Clouds
11:56 PM 54.0 °F 48.9 °F 83% 29.90 in 10.0 mi Calm Calm - N/A   Scattered Clouds